period_start,C,m1,H,J0,J1,J2,J3,J4,J5,JA,JB,JC,JD,JJ,JK,JN,#
2016-08-04 00:04:55,0.00,0.33,0.00,24.63,28.80,31.42,14.15,46.08,1000.50,2032.02,3308.92,3024.98,3387.98,599.89,583.29,38.74,0000 0000 0000 0000 000000
2016-08-04 00:09:56,0.00,0.33,0.00,24.65,28.80,31.42,14.12,46.17,1000.55,2032.03,3308.95,3024.98,3387.97,599.84,583.22,38.79,0000 0000 0000 0000 000000
2016-08-04 00:14:57,-0.00,0.33,0.00,24.64,28.80,31.42,14.19,46.18,1000.63,2032.04,3308.97,3024.97,3387.99,600.06,583.50,38.84,0000 0000 0000 0000 000000
2016-08-04 00:19:58,0.01,0.33,0.00,24.65,28.80,31.43,14.18,46.11,1000.75,2032.06,3308.95,3024.97,3387.98,600.09,583.54,38.89,0000 0000 0000 0000 000000
2016-08-04 00:24:59,-0.00,0.33,0.00,24.64,28.80,31.43,14.19,46.38,1000.93,2032.08,3308.97,3024.99,3387.98,600.19,583.89,38.94,0000 0000 0000 0000 000000
2016-08-04 00:30:00,0.00,0.33,0.00,24.63,28.80,31.44,14.17,46.33,1000.91,2032.09,3308.95,3024.98,3387.98,600.17,583.82,39.00,0000 0000 0000 0000 000000
2016-08-04 00:35:02,0.01,0.33,0.00,24.62,28.80,31.42,14.17,46.26,1000.71,2032.15,3308.96,3024.99,3387.99,600.23,583.79,39.05,0000 0000 0000 0000 000000
2016-08-04 00:40:03,-0.01,0.33,0.00,24.64,28.80,31.43,14.18,46.48,1000.95,2032.15,3308.95,3024.99,3387.99,599.73,583.39,39.10,0000 0000 0000 0000 000000
2016-08-04 00:45:04,0.01,0.33,0.00,24.61,28.80,31.42,14.24,46.23,1000.99,2032.14,3308.96,3024.99,3387.98,600.12,583.86,39.15,0000 0000 0000 0000 000000
2016-08-04 00:50:05,-0.00,0.33,0.00,24.60,28.80,31.42,14.16,46.11,1000.99,2032.23,3308.98,3024.99,3387.99,600.15,583.94,39.20,0000 0000 0000 0000 000000
2016-08-04 00:55:06,0.01,0.33,0.00,24.58,28.79,31.42,14.21,46.19,1000.99,2032.27,3308.99,3024.99,3387.99,600.27,583.91,39.25,0000 0000 0000 0000 000000
2016-08-04 01:00:07,-0.02,0.33,0.00,24.58,28.78,31.42,14.10,46.24,1000.97,2032.08,3308.98,3024.99,3387.99,599.96,583.73,39.30,0000 0000 0000 0000 000000
2016-08-04 01:05:08,0.00,0.33,0.00,24.58,28.77,31.41,14.10,45.94,1000.97,2032.07,3308.98,3024.99,3387.99,599.58,583.32,39.35,0000 0000 0000 0000 000000
2016-08-04 01:10:10,-0.00,0.33,0.00,24.56,28.77,31.41,14.16,46.10,1000.99,2032.11,3308.96,3024.99,3387.99,600.03,583.76,39.40,0000 0000 0000 0000 000000
2016-08-04 01:15:11,-0.01,0.33,0.00,24.56,28.77,31.41,14.18,46.12,1000.99,2032.06,3308.96,3024.99,3387.98,600.01,583.79,39.45,0000 0000 0000 0000 000000
2016-08-04 01:20:12,0.01,0.33,0.00,24.56,28.77,31.41,14.11,46.11,1000.98,2032.13,3308.95,3024.99,3387.99,599.82,583.62,39.50,0000 0000 0000 0000 000000
2016-08-04 01:25:14,-0.00,0.33,0.00,24.55,28.77,31.40,14.16,46.07,1000.99,2032.14,3308.95,3024.99,3387.99,599.92,583.69,39.55,0000 0000 0000 0000 000000
2016-08-04 01:30:15,0.00,0.33,0.00,24.54,28.77,31.40,14.12,46.19,1000.99,2032.20,3308.88,3024.99,3387.99,600.05,583.93,39.60,0000 0000 0000 0000 000000
2016-08-04 01:35:16,0.00,0.33,0.00,24.54,28.76,31.39,14.20,46.08,1000.99,2032.23,3308.74,3024.99,3387.98,600.17,583.96,39.65,0000 0000 0000 0000 000000
2016-08-04 01:40:17,0.01,0.33,0.00,24.54,28.75,31.40,14.13,46.14,1001.00,2032.25,3308.69,3024.99,3387.99,600.05,583.87,39.70,0000 0000 0000 0000 000000
2016-08-04 01:45:18,0.01,0.33,0.00,24.53,28.75,31.39,14.22,46.14,1000.99,2032.42,3308.81,3024.99,3387.99,600.08,583.94,39.75,0000 0000 0000 0000 000000
2016-08-04 01:50:19,0.02,0.33,0.00,24.52,28.75,31.39,14.19,45.97,1001.00,2032.58,3308.73,3024.99,3387.99,599.97,583.78,39.80,0000 0000 0000 0000 000000
2016-08-04 01:55:20,0.01,0.33,0.00,24.51,28.75,31.39,14.17,45.97,1001.01,2032.75,3308.75,3025.00,3387.99,600.04,583.79,39.85,0000 0000 0000 0000 000000
2016-08-04 02:00:22,0.00,0.33,0.00,24.51,28.75,31.39,14.18,46.26,1001.00,2032.84,3308.75,3025.00,3387.99,600.18,584.08,39.90,0000 0000 0000 0000 000000
2016-08-04 02:05:23,0.01,0.33,0.00,24.51,28.75,31.38,14.19,46.09,1000.99,2032.92,3308.63,3025.00,3387.99,599.84,583.86,39.96,0000 0000 0000 0000 000000
2016-08-04 02:10:24,0.00,0.33,0.00,24.52,28.75,31.38,14.26,46.20,1000.99,2032.94,3308.64,3025.00,3387.99,599.99,583.93,40.01,0000 0000 0000 0000 000000
2016-08-04 02:15:26,0.01,0.33,0.00,24.51,28.75,31.39,14.17,46.23,1001.00,2032.97,3308.20,3025.00,3387.99,599.50,583.43,40.06,0000 0000 0000 0000 000000
2016-08-04 02:20:27,-0.01,0.33,0.00,24.50,28.74,31.39,14.19,46.17,1001.00,2032.96,3308.39,3025.00,3387.99,600.05,583.92,40.11,0000 0000 0000 0000 000000
2016-08-04 02:25:28,0.00,0.33,0.00,24.51,28.73,31.39,14.19,46.27,1001.01,2032.97,3308.48,3025.00,3387.99,599.92,583.80,40.16,0000 0000 0000 0000 000000
2016-08-04 02:30:30,0.00,0.33,0.00,24.49,28.72,31.38,14.23,46.67,1001.01,2032.96,3308.20,3025.00,3387.99,600.43,584.35,40.21,0000 0000 0000 0000 000000
2016-08-04 02:35:31,0.03,0.33,0.00,24.49,28.72,31.37,14.16,46.73,1001.00,2032.97,3308.04,3024.66,3387.52,599.52,583.43,40.26,0000 0000 0000 0000 000000
2016-08-04 02:40:32,0.00,0.33,0.00,24.50,28.72,31.37,14.20,46.53,1001.01,2032.94,3308.00,3024.32,3387.03,599.84,583.74,40.31,0000 0000 0000 0000 000000
2016-08-04 02:45:34,0.00,0.33,0.00,24.51,28.72,31.36,14.25,46.47,1001.01,2032.94,3307.98,3024.24,3387.01,600.13,584.08,40.36,0000 0000 0000 0000 000000
2016-08-04 02:50:35,-0.00,0.33,0.00,24.51,28.72,31.38,14.17,46.48,1001.03,2032.93,3307.98,3024.25,3387.01,600.02,583.86,40.41,0000 0000 0000 0000 000000
2016-08-04 02:55:36,0.00,0.33,0.00,24.50,28.72,31.36,14.21,46.53,1001.03,2032.95,3307.98,3024.27,3387.00,600.26,584.28,40.46,0000 0000 0000 0000 000000
2016-08-04 03:00:37,0.00,0.33,0.00,24.50,28.72,31.37,14.21,46.33,1001.03,2032.98,3307.98,3024.20,3387.00,599.79,583.70,40.51,0000 0000 0000 0000 000000
2016-08-04 03:05:39,0.00,0.33,0.00,24.50,28.72,31.36,14.26,46.38,1001.01,2032.96,3307.98,3024.18,3387.00,599.96,583.82,40.56,0000 0000 0000 0000 000000
2016-08-04 03:10:40,-0.00,0.33,0.00,24.50,28.72,31.37,14.27,46.54,1000.99,2032.98,3307.99,3024.36,3387.01,600.07,584.02,40.61,0000 0000 0000 0000 000000
2016-08-04 03:15:41,0.00,0.33,0.00,24.49,28.72,31.36,14.24,46.47,1001.00,2032.98,3307.98,3024.21,3387.00,600.38,584.22,40.66,0000 0000 0000 0000 000000
2016-08-04 03:20:43,0.00,0.33,0.00,24.49,28.72,31.38,14.13,46.53,1000.99,2032.99,3307.93,3024.10,3387.00,599.73,583.61,40.71,0000 0000 0000 0000 000000
2016-08-04 03:25:44,0.00,0.33,0.00,24.49,28.72,31.36,14.18,46.35,1000.99,2032.97,3307.66,3024.08,3387.00,600.21,584.13,40.76,0000 0000 0000 0000 000000
2016-08-04 03:30:45,0.00,0.33,0.00,24.48,28.72,31.35,14.22,46.52,1000.99,2032.99,3307.57,3024.14,3387.00,599.92,583.90,40.81,0000 0000 0000 0000 000000
2016-08-04 03:35:46,0.01,0.33,0.00,24.47,28.71,31.35,14.18,46.28,1001.01,2032.99,3307.23,3024.04,3386.99,600.02,584.04,40.87,0000 0000 0000 0000 000000
2016-08-04 03:40:47,0.00,0.33,0.00,24.47,28.70,31.35,14.19,46.22,1001.00,2032.99,3307.00,3024.00,3386.96,599.91,583.87,40.92,0000 0000 0000 0000 000000
2016-08-04 03:45:49,0.00,0.33,0.00,24.46,28.70,31.35,14.23,46.29,1001.00,2032.99,3307.00,3024.00,3386.96,599.96,583.90,40.97,0000 0000 0000 0000 000000
2016-08-04 03:50:50,0.00,0.33,0.00,24.46,28.70,31.34,14.24,46.30,1001.00,2032.99,3307.00,3024.01,3386.98,600.42,584.37,41.02,0000 0000 0000 0000 000000
2016-08-04 03:55:51,0.00,0.33,0.00,24.45,28.69,31.33,14.19,46.26,1001.00,2032.99,3307.00,3024.01,3386.96,599.63,583.75,41.07,0000 0000 0000 0000 000000
2016-08-04 04:00:52,0.00,0.33,0.00,24.45,28.67,31.34,14.17,46.44,1001.00,2032.99,3306.99,3024.00,3386.97,600.12,584.13,41.12,0000 0000 0000 0000 000000
2016-08-04 04:05:53,0.00,0.33,0.00,24.45,28.67,31.34,14.11,46.13,1001.00,2032.99,3306.99,3024.00,3386.98,599.76,583.81,41.17,0000 0000 0000 0000 000000
2016-08-04 04:10:54,0.00,0.33,0.00,24.45,28.67,31.33,14.22,46.27,1000.99,2032.99,3306.99,3024.00,3386.98,600.10,584.15,41.22,0000 0000 0000 0000 000000
2016-08-04 04:15:56,0.00,0.33,0.00,24.44,28.67,31.34,14.22,46.33,1001.05,2032.99,3306.96,3024.00,3386.90,599.67,583.77,41.27,0000 0000 0000 0000 000000
2016-08-04 04:20:57,0.00,0.33,0.00,24.44,28.65,31.33,14.17,46.06,1001.42,2033.00,3306.96,3024.00,3386.95,599.61,583.95,41.32,0000 0000 0000 0000 000000
2016-08-04 04:25:58,0.00,0.33,0.00,24.43,28.65,31.33,14.21,46.38,1001.69,2033.01,3307.00,3024.01,3386.98,599.93,584.38,41.37,0000 0000 0000 0000 000000
2016-08-04 04:30:59,0.00,0.33,0.00,24.43,28.65,31.32,14.14,46.31,1001.96,2033.00,3307.05,3024.04,3386.98,600.08,584.70,41.42,0000 0000 0000 0000 000000
2016-08-04 04:36:01,-0.01,0.33,0.00,24.42,28.64,31.30,14.25,46.40,1002.04,2033.00,3307.19,3024.05,3386.99,599.91,584.56,41.47,0000 0000 0000 0000 000000
2016-08-04 04:41:02,0.00,0.33,0.00,24.43,28.62,31.29,14.27,46.32,1002.08,2033.00,3307.40,3024.08,3386.99,599.92,584.53,41.52,0000 0000 0000 0000 000000
2016-08-04 04:46:03,-0.01,0.33,0.00,24.42,28.62,31.29,14.26,46.32,1002.25,2033.00,3307.71,3024.22,3386.99,599.95,584.79,41.57,0000 0000 0000 0000 000000
2016-08-04 04:51:04,-0.00,0.33,0.00,24.41,28.62,31.29,14.19,46.43,1002.45,2033.00,3307.88,3024.33,3387.00,599.86,584.86,41.62,0000 0000 0000 0000 000000
2016-08-04 04:56:05,0.00,0.33,0.00,24.41,28.60,31.29,14.18,46.67,1002.46,2033.00,3307.90,3024.47,3387.00,600.11,585.13,41.67,0000 0000 0000 0000 000000
2016-08-04 05:01:06,0.02,0.33,0.00,24.40,28.60,31.30,14.23,46.67,1002.48,2033.00,3307.51,3024.14,3387.00,600.07,584.91,41.72,0000 0000 0000 0000 000000
2016-08-04 05:06:07,0.00,0.33,0.00,24.39,28.60,31.29,14.22,46.80,1002.47,2033.00,3307.20,3024.01,3386.94,599.83,584.80,41.77,0000 0000 0000 0000 000000
2016-08-04 05:11:09,-0.00,0.33,0.00,24.39,28.57,31.29,14.24,46.83,1002.62,2033.00,3307.47,3024.02,3386.99,599.48,584.57,41.82,0000 0000 0000 0000 000000
2016-08-04 05:16:10,0.00,0.33,0.00,24.38,28.57,31.30,14.18,46.65,1002.74,2033.00,3307.39,3024.02,3386.99,600.13,585.11,41.88,0000 0000 0000 0000 000000
2016-08-04 05:21:11,0.00,0.33,0.00,24.36,28.56,31.30,14.17,46.54,1002.75,2033.00,3307.18,3024.02,3386.99,599.89,585.01,41.93,0000 0000 0000 0000 000000
2016-08-04 05:26:12,-0.00,0.33,0.00,24.35,28.55,31.31,14.29,46.61,1002.49,2033.01,3307.21,3024.07,3386.99,600.07,585.15,41.98,0000 0000 0000 0000 000000
2016-08-04 05:41:16,-3333.30,0.00,0.00,23.38,28.69,29.31,12.49,41.15,1002.64,1833.21,3149.99,2774.87,3165.77,525.45,514.14,0.00,0000 0000 0000 0000 000000
2016-08-04 05:46:18,0.00,0.00,0.00,23.03,28.57,30.30,14.34,46.81,1002.93,2034.09,3490.13,3077.37,3510.19,599.95,587.81,0.05,0000 0000 0000 0000 000000
2016-08-04 05:51:19,0.00,0.00,0.00,22.62,28.46,30.64,14.31,46.80,1002.94,2033.98,3489.03,3077.00,3509.44,599.91,588.67,0.10,0000 0000 0000 0000 000000
2016-08-04 05:56:21,0.00,0.00,0.00,22.33,28.35,30.83,14.45,47.12,1003.06,2033.99,3488.98,3077.00,3509.10,599.78,589.20,0.15,0000 0000 0000 0000 000000
2016-08-04 06:01:21,0.00,0.00,0.00,22.09,28.26,31.00,14.42,46.77,1003.41,2034.33,3488.94,3077.05,3509.42,600.05,590.12,0.21,0000 0000 0000 0000 000000
2016-08-04 06:06:23,0.01,0.00,0.00,22.01,28.18,31.07,14.45,46.79,1003.48,2034.94,3488.99,3077.74,3509.93,600.02,590.46,0.26,0000 0000 0000 0000 000000
2016-08-04 06:11:24,-0.00,0.00,0.00,21.96,28.11,31.13,14.48,46.77,1003.87,2034.99,3489.23,3078.01,3510.05,599.65,590.35,0.31,0000 0000 0000 0000 000000
2016-08-04 06:16:25,-0.03,0.00,0.00,22.73,28.05,31.10,14.40,46.80,1003.92,2035.02,3489.88,3078.48,3510.64,600.12,589.25,0.36,0000 0000 0000 0000 000000
2016-08-04 06:21:26,0.05,0.00,0.00,23.47,28.02,31.06,14.37,46.53,1003.94,2035.50,3489.99,3078.97,3510.98,600.11,587.85,0.41,0000 0000 0000 0000 000000
2016-08-04 06:26:27,0.03,0.00,0.00,23.71,28.02,30.78,14.23,46.35,1004.14,2035.94,3490.00,3078.98,3510.98,599.88,587.19,0.46,0000 0000 0000 0000 000000
2016-08-04 06:31:28,0.00,0.00,0.00,23.81,28.02,30.72,14.29,46.39,1004.40,2035.97,3490.02,3078.98,3510.91,599.85,587.13,0.51,0000 0000 0000 0000 000000
2016-08-04 06:36:29,0.00,0.00,0.00,23.91,28.02,30.73,14.23,46.57,1004.56,2035.98,3490.03,3078.98,3510.66,599.81,586.94,0.56,0000 0000 0000 0000 000000
2016-08-04 06:41:30,0.00,0.00,0.00,23.98,28.05,30.75,14.26,46.68,1004.83,2035.97,3490.03,3078.97,3510.44,599.87,587.09,0.61,0000 0000 0000 0000 000000
2016-08-04 06:46:32,0.00,0.00,0.00,24.04,28.06,30.77,14.23,46.56,1004.91,2035.96,3490.00,3078.97,3510.11,599.56,586.74,0.66,0000 0000 0000 0000 000000
2016-08-04 06:51:33,0.03,0.00,0.00,24.02,28.09,30.83,14.28,46.53,1004.95,2035.91,3489.64,3078.44,3509.54,600.26,587.29,0.71,0000 0000 0000 0000 000000
2016-08-04 06:56:35,-0.03,0.00,0.00,24.02,28.11,30.91,14.34,46.78,1005.00,2035.52,3489.05,3077.84,3508.99,600.12,587.26,0.76,0000 0000 0000 0000 000000
2016-08-04 07:01:36,-0.00,0.00,0.00,24.06,28.13,30.93,14.24,46.61,1005.07,2035.10,3488.99,3077.06,3508.46,600.00,587.13,0.81,0000 0000 0000 0000 000000
2016-08-04 07:06:37,0.01,0.00,0.00,24.06,28.16,30.97,14.24,46.64,1005.28,2035.04,3488.73,3077.00,3508.04,599.76,586.99,0.86,0000 0000 0000 0000 000000
2016-08-04 07:11:39,0.01,0.00,0.00,24.09,28.17,31.00,14.31,46.44,1005.35,2035.00,3488.15,3076.97,3507.99,600.15,587.41,0.91,0000 0000 0000 0000 000000
2016-08-04 07:16:41,0.01,0.00,0.00,24.05,28.20,31.02,14.29,46.49,1005.41,2035.00,3488.01,3076.76,3507.91,599.88,587.15,0.96,0000 0000 0000 0000 000000
2016-08-04 07:21:42,0.02,0.01,0.00,24.04,28.22,31.06,14.32,46.52,1005.76,2035.00,3488.00,3076.23,3507.33,600.19,587.74,1.01,0000 0000 0000 0000 000000
2016-08-04 07:26:43,0.00,0.01,0.00,24.05,28.24,31.08,14.32,46.53,1005.95,2035.00,3487.86,3076.02,3507.03,600.19,587.85,1.06,0000 0000 0000 0000 000000
2016-08-04 07:31:45,0.01,0.01,0.00,24.06,28.26,31.09,14.31,46.61,1006.34,2035.00,3487.33,3076.00,3507.00,599.94,587.80,1.11,0000 0000 0000 0000 000000
2016-08-04 07:36:46,0.01,0.01,0.00,24.07,28.27,31.10,14.34,46.56,1006.44,2034.97,3487.01,3075.98,3506.69,600.00,587.87,1.16,0000 0000 0000 0000 000000
2016-08-04 07:41:48,0.02,0.01,0.00,24.06,28.30,31.12,14.28,46.52,1006.77,2034.97,3486.97,3075.66,3506.07,600.01,588.19,1.21,0000 0000 0000 0000 000000
2016-08-04 07:46:49,0.00,0.01,0.00,24.06,28.31,31.14,14.36,46.50,1006.85,2034.94,3486.82,3075.27,3506.01,599.96,588.20,1.26,0000 0000 0000 0000 000000
2016-08-04 07:51:50,-0.00,0.01,0.00,24.08,28.33,31.14,14.32,46.57,1006.85,2034.89,3486.61,3075.11,3506.00,600.14,588.31,1.31,0000 0000 0000 0000 000000
2016-08-04 07:56:51,-0.01,0.01,0.00,24.02,28.35,31.15,14.27,46.69,1006.87,2034.61,3486.10,3075.01,3505.97,599.93,588.30,1.36,0000 0000 0000 0000 000000
2016-08-04 08:01:52,-0.02,0.01,0.00,24.00,28.36,31.18,14.35,46.53,1006.89,2034.27,3486.00,3075.00,3505.64,600.08,588.41,1.41,0000 0000 0000 0000 000000
2016-08-04 08:06:53,-0.00,0.01,0.00,24.01,28.37,31.19,14.28,46.71,1006.87,2034.16,3485.99,3075.00,3505.19,599.92,588.29,1.46,0000 0000 0000 0000 000000
2016-08-04 08:11:55,-0.01,0.01,0.00,24.02,28.38,31.20,14.32,46.78,1006.86,2034.04,3485.99,3074.99,3505.04,599.90,588.21,1.51,0000 0000 0000 0000 000000
2016-08-04 08:16:56,-0.00,0.01,0.00,24.04,28.40,31.21,14.34,46.67,1006.92,2034.02,3485.97,3074.97,3505.00,599.99,588.20,1.56,0000 0000 0000 0000 000000
2016-08-04 08:21:57,0.01,0.01,0.00,23.98,28.40,31.22,14.27,46.54,1007.19,2034.03,3485.63,3074.94,3505.00,599.81,588.36,1.61,0000 0000 0000 0000 000000
2016-08-04 08:26:58,0.00,0.01,0.00,23.97,28.40,31.23,14.31,46.63,1007.31,2034.01,3485.40,3074.87,3505.00,600.18,588.86,1.66,0000 0000 0000 0000 000000
2016-08-04 08:32:00,0.01,0.01,0.00,23.97,28.41,31.24,14.35,46.63,1007.35,2034.01,3485.07,3074.58,3504.98,600.07,588.59,1.71,0000 0000 0000 0000 000000
2016-08-04 08:37:01,0.01,0.01,0.00,23.97,28.42,31.24,14.45,46.63,1007.63,2034.00,3485.00,3074.14,3504.61,600.24,589.15,1.76,0000 0000 0000 0000 000000
2016-08-04 08:42:02,-0.00,0.01,0.00,23.97,28.42,31.24,14.28,46.57,1007.83,2034.00,3485.00,3074.09,3504.29,600.16,589.04,1.81,0000 0000 0000 0000 000000
2016-08-04 08:47:03,0.00,0.01,0.00,23.95,28.42,31.25,14.32,46.42,1007.90,2034.00,3485.00,3074.05,3504.16,600.10,589.10,1.86,0000 0000 0000 0000 000000
2016-08-04 08:52:04,0.00,0.01,0.00,23.96,28.42,31.24,14.33,46.51,1008.23,2034.00,3484.99,3074.02,3504.03,599.97,589.18,1.91,0000 0000 0000 0000 000000
2016-08-04 08:57:06,0.00,0.01,0.00,23.92,28.42,31.24,14.41,46.41,1008.33,2034.00,3484.96,3074.00,3504.01,600.43,589.71,1.96,0000 0000 0000 0000 000000
2016-08-04 09:02:07,0.00,0.01,0.00,23.93,28.42,31.24,14.34,46.34,1008.67,2034.00,3484.86,3074.00,3504.00,599.95,589.48,2.01,0000 0000 0000 0000 000000
2016-08-04 09:07:08,-0.00,0.01,0.00,23.93,28.43,31.24,14.35,46.38,1008.80,2034.00,3484.75,3074.00,3504.00,599.87,589.38,2.06,0000 0000 0000 0000 000000
2016-08-04 09:12:09,0.00,0.01,0.00,23.93,28.44,31.25,14.26,46.28,1008.86,2034.00,3484.58,3074.00,3504.00,599.73,589.36,2.11,0000 0000 0000 0000 000000
2016-08-04 09:17:11,0.00,0.01,0.00,23.93,28.45,31.24,14.31,46.22,1009.12,2034.00,3484.33,3074.00,3503.99,600.11,589.88,2.16,0000 0000 0000 0000 000000
2016-08-04 09:22:12,0.00,0.01,0.00,23.94,28.45,31.24,14.41,46.39,1009.26,2034.00,3484.21,3074.00,3503.99,600.25,590.05,2.21,0000 0000 0000 0000 000000
2016-08-04 09:27:13,0.00,0.01,0.00,23.94,28.45,31.24,14.42,46.42,1009.29,2034.00,3484.14,3074.00,3503.98,600.20,590.03,2.26,0000 0000 0000 0000 000000
2016-08-04 09:32:14,0.00,0.01,0.00,23.92,28.45,31.23,14.39,46.16,1009.29,2034.00,3484.05,3073.99,3503.96,600.05,589.94,2.31,0000 0000 0000 0000 000000
2016-08-04 09:37:15,0.00,0.01,0.00,23.95,28.45,31.25,14.46,46.32,1009.29,2034.00,3484.01,3073.99,3503.91,600.13,589.99,2.36,0000 0000 0000 0000 000000
2016-08-04 09:42:17,0.00,0.01,0.00,23.92,28.45,31.26,14.34,46.27,1009.29,2034.00,3484.00,3073.96,3503.59,599.50,589.48,2.41,0000 0000 0000 0000 000000
2016-08-04 09:47:18,0.00,0.01,0.00,23.94,28.45,31.25,14.40,46.31,1009.29,2034.00,3484.00,3073.96,3503.25,600.54,590.31,2.46,0000 0000 0000 0000 000000
2016-08-04 09:52:19,0.00,0.01,0.00,23.91,28.45,31.24,14.39,46.36,1009.29,2034.00,3484.00,3073.95,3503.10,599.77,589.77,2.51,0000 0000 0000 0000 000000
2016-08-04 09:57:21,0.00,0.01,0.00,23.92,28.45,31.24,14.41,46.20,1009.30,2034.00,3483.99,3073.90,3503.04,600.29,590.17,2.56,0000 0000 0000 0000 000000
2016-08-04 10:02:22,0.00,0.01,0.00,23.91,28.45,31.24,14.37,46.27,1009.30,2033.99,3483.98,3073.85,3503.03,600.08,590.15,2.62,0000 0000 0000 0000 000000
2016-08-04 10:07:23,-0.00,0.01,0.00,23.91,28.45,31.26,14.36,46.19,1009.34,2033.99,3483.99,3073.87,3503.01,599.97,590.01,2.67,0000 0000 0000 0000 000000
2016-08-04 10:12:24,0.00,0.01,0.00,23.91,28.45,31.25,14.32,46.33,1009.66,2033.99,3483.99,3073.94,3503.04,599.71,589.74,2.72,0000 0000 0000 0000 000000
2016-08-04 10:17:25,0.00,0.01,0.00,23.92,28.45,31.25,14.39,46.23,1009.76,2033.99,3483.99,3073.96,3503.04,600.11,590.29,2.77,0000 0000 0000 0000 000000
2016-08-04 10:22:27,0.00,0.01,0.00,23.82,28.45,31.28,14.34,46.23,1009.78,2033.99,3483.98,3073.90,3503.01,599.63,590.10,2.82,0000 0000 0000 0000 000000
2016-08-04 10:27:28,0.00,0.01,0.00,23.63,28.45,31.28,14.40,46.34,1009.78,2033.99,3483.98,3073.94,3503.02,599.94,590.77,2.87,0000 0000 0000 0000 000000
2016-08-04 10:32:29,-0.00,0.01,0.00,23.81,28.45,31.23,14.43,46.25,1009.80,2033.99,3483.97,3073.89,3503.01,600.27,590.61,2.92,0000 0000 0000 0000 000000
2016-08-04 10:37:30,0.00,0.01,0.00,23.82,28.45,31.24,14.35,46.23,1010.08,2033.99,3483.97,3073.88,3503.00,599.73,590.26,2.97,0000 0000 0000 0000 000000
2016-08-04 10:42:32,0.00,0.01,0.00,23.85,28.45,31.25,14.38,46.12,1010.27,2033.99,3483.97,3073.88,3503.00,600.18,590.80,3.02,0000 0000 0000 0000 000000
2016-08-04 10:47:33,0.00,0.01,0.00,23.84,28.45,31.25,14.46,46.19,1010.27,2033.99,3483.97,3073.90,3503.00,600.27,590.93,3.07,0000 0000 0000 0000 000000
2016-08-04 10:52:34,0.00,0.01,0.00,23.85,28.46,31.26,14.35,46.15,1010.27,2033.99,3483.97,3073.93,3503.00,599.73,590.22,3.12,0000 0000 0000 0000 000000
2016-08-04 10:57:35,0.01,0.01,0.00,23.87,28.47,31.25,14.40,46.17,1010.29,2033.99,3483.77,3073.77,3503.00,600.37,590.88,3.17,0000 0000 0000 0000 000000
2016-08-04 11:02:37,0.02,0.01,0.00,23.89,28.47,31.26,14.36,46.08,1010.43,2033.99,3483.23,3073.35,3502.99,600.04,590.61,3.22,0000 0000 0000 0000 000000
2016-08-04 11:07:38,-0.00,0.01,0.00,23.88,28.47,31.27,14.38,46.18,1010.49,2033.99,3483.13,3073.18,3502.97,600.19,590.76,3.27,0000 0000 0000 0000 000000
2016-08-04 11:12:40,0.00,0.01,0.00,23.88,28.47,31.27,14.38,46.28,1010.69,2033.99,3483.07,3073.09,3502.92,600.09,590.97,3.32,0000 0000 0000 0000 000000
2016-08-04 11:17:41,0.02,0.01,0.00,23.89,28.47,31.27,14.35,46.22,1010.75,2033.99,3482.77,3072.98,3502.36,599.83,590.67,3.37,0000 0000 0000 0000 000000
2016-08-04 11:22:43,0.01,0.01,0.00,23.88,28.47,31.27,14.41,46.32,1010.76,2033.99,3482.03,3072.69,3501.93,600.37,591.27,3.42,0000 0000 0000 0000 000000
2016-08-04 11:27:44,0.03,0.02,0.00,23.90,28.47,31.27,14.43,46.19,1010.76,2033.98,3481.98,3072.14,3501.28,599.87,590.69,3.47,0000 0000 0000 0000 000000
2016-08-04 11:32:45,0.00,0.02,0.00,23.87,28.48,31.27,14.37,46.32,1010.78,2033.99,3481.90,3072.01,3501.01,599.82,590.74,3.52,0000 0000 0000 0000 000000
2016-08-04 11:37:47,0.00,0.02,0.00,23.88,28.48,31.29,14.34,46.16,1010.99,2033.99,3481.77,3072.00,3501.02,599.75,590.74,3.57,0000 0000 0000 0000 000000
2016-08-04 11:42:48,0.00,0.02,0.00,23.89,28.48,31.28,14.39,46.23,1011.21,2033.99,3481.23,3072.01,3501.00,600.18,591.32,3.62,0000 0000 0000 0000 000000
2016-08-04 11:47:50,0.00,0.02,0.00,23.90,28.49,31.26,14.33,46.19,1011.23,2033.99,3481.04,3072.00,3501.00,600.07,591.14,3.67,0000 0000 0000 0000 000000
2016-08-04 11:52:51,0.00,0.02,0.00,23.89,28.49,31.26,14.37,46.27,1011.24,2033.99,3481.03,3072.00,3501.00,599.75,590.90,3.72,0000 0000 0000 0000 000000
2016-08-04 11:57:52,0.00,0.02,0.00,23.88,28.50,31.26,14.37,46.29,1011.24,2033.99,3481.00,3071.99,3500.99,600.04,591.16,3.77,0000 0000 0000 0000 000000
2016-08-04 12:02:54,0.00,0.02,0.00,23.87,28.50,31.27,14.35,46.25,1011.24,2033.99,3481.00,3071.98,3500.97,599.86,590.96,3.82,0000 0000 0000 0000 000000
2016-08-04 12:07:55,0.00,0.02,0.00,23.80,28.50,31.32,14.43,46.27,1011.24,2033.99,3480.99,3071.98,3500.85,600.07,591.35,3.87,0000 0000 0000 0000 000000
2016-08-04 12:12:56,0.00,0.02,0.00,23.62,28.48,31.34,14.38,46.23,1011.27,2033.99,3480.99,3071.98,3500.93,599.85,591.47,3.92,0000 0000 0000 0000 000000
2016-08-04 12:17:57,0.00,0.02,0.00,23.81,28.47,31.26,14.41,46.13,1011.36,2033.99,3481.02,3071.98,3500.69,599.87,591.13,3.97,0000 0000 0000 0000 000000
2016-08-04 12:22:58,-0.01,0.02,0.00,23.85,28.47,31.26,14.42,46.11,1011.51,2033.99,3481.24,3071.99,3500.66,600.23,591.53,4.02,0000 0000 0000 0000 000000
2016-08-04 12:28:00,0.01,0.02,0.00,23.87,28.47,31.26,14.37,46.08,1011.70,2033.99,3481.18,3071.97,3500.29,599.63,591.01,4.07,0000 0000 0000 0000 000000
2016-08-04 12:33:01,-0.00,0.02,0.00,23.88,28.48,31.26,14.39,46.13,1011.73,2033.99,3481.13,3071.99,3500.24,599.94,591.18,4.12,0000 0000 0000 0000 000000
2016-08-04 12:38:02,0.00,0.02,0.00,23.89,28.48,31.27,14.29,46.13,1011.74,2033.99,3481.10,3071.98,3500.29,599.69,591.06,4.17,0000 0000 0000 0000 000000
2016-08-04 12:43:02,0.00,0.02,0.00,23.88,28.48,31.26,14.40,46.13,1011.74,2033.99,3481.03,3071.98,3500.17,599.89,591.36,4.22,0000 0000 0000 0000 000000
2016-08-04 12:48:04,-0.01,0.02,0.00,23.89,28.49,31.27,14.37,46.00,1011.79,2033.99,3481.27,3071.99,3500.41,599.80,591.24,4.27,0000 0000 0000 0000 000000
2016-08-04 12:53:05,0.00,0.02,0.00,23.90,28.49,31.27,14.40,46.10,1011.82,2033.99,3481.37,3071.99,3500.44,600.25,591.67,4.32,0000 0000 0000 0000 000000
2016-08-04 12:58:06,0.00,0.02,0.00,23.88,28.49,31.28,14.43,45.99,1011.97,2033.99,3481.36,3071.99,3500.38,600.04,591.57,4.37,0000 0000 0000 0000 000000
2016-08-04 13:03:08,0.00,0.02,0.00,23.89,28.48,31.30,14.39,46.08,1012.10,2033.99,3481.24,3071.99,3500.18,599.98,591.50,4.42,0000 0000 0000 0000 000000
2016-08-04 13:08:09,0.00,0.02,0.00,23.84,28.48,31.30,14.46,46.09,1012.19,2033.99,3481.21,3071.99,3500.17,599.91,591.74,4.47,0000 0000 0000 0000 000000